Location: Bushrod
(6.3500°N, 10.7833°W)
Time: 00:24:25
(UTC+00:00)

Cosmos 2297 Rocket - Pass Details

Date: 17 September 2019
Orbit: 841 x 842 km, 71.0° (Epoch: 22 October)

Event Time Altitude Azimuth Distance (km) Brightness Sun altitude
Rises 19:15:07 0° 173° (S) 3,389 5.2 -9.1°
Reaches altitude 10° 19:17:55 10° 161° (SSE) 2,454 4.4 -9.8°
Maximum altitude 19:22:36 27° 104° (ESE) 1,552 3.0 -10.9°
Drops below altitude 10° 19:27:16 10° 48° (NE) 2,451 4.2 -12.1°
Sets 19:30:03 0° 36° (NE) 3,384 5.0 -12.8°
